Jacksonville, FL

1:47 AM EST on February 24, 2017 (GMT -0500)
Cecil

Weather History for KVQQ - February, 2013

Change the Weather History Date:

Tuesday, February 19, 2013

  Actual Average (KNIP) Record (KNIP)
Temperature  
Mean Temperature 55 °F -  
Max Temperature 77 °F 67 °F 82 °F (2012)
Min Temperature 33 °F 50 °F 35 °F (2015)
Degree Days  
Heating Degree Days 10    
Growing Degree Days 5 (Base 50)    
Moisture  
Dew Point 46 °F    
Average Humidity 87    
Maximum Humidity 100    
Minimum Humidity 44    
Precipitation  
Precipitation 0.00 in - - ()
Sea Level Pressure  
Sea Level Pressure 30.14 in    
Wind  
Wind Speed 3 mph (WSW)    
Max Wind Speed 17 mph    
Max Gust Speed 29 mph    
Visibility 10 miles    
Events Rain    
Averages and records for this station are not official NWS values.
T = Trace of Precipitation, MM = Missing Value Source: NWS Daily Summary

Daily Weather History Graph

Daily Weather History Graph

Search for Another Location

Airport or City:

Trip Planner

Search our weather history database for the weather conditions in past years. The results will help you decide how hot, cold, wet, or windy it might be!

Date:

Astronomy

Feb. 19, 2013 Rise Set
Actual Time 7:03 AM EST 6:19 PM EST
Civil Twilight 6:39 AM EST 6:43 PM EST
Nautical Twilight 6:11 AM EST 7:11 PM EST
Astronomical Twilight 5:43 AM EST 7:39 PM EST
Moon 1:02 PM EST (2/19) 2:21 AM EST (2/19)
Length of Visible Light 12h 04m
Length of Day
11h 15m
Waxing Gibbous, 67% of the Moon is Illuminated
Feb 19
Waxing Gibbous
Feb 25
Full
Mar 4
Last Quarter
Mar 11
New
Mar 19
First Quarter

Hourly Weather History & Observations

Time (EST) Temp. Windchill Dew Point Humidity Pressure Visibility Wind Dir Wind Speed Gust Speed Precip Events Conditions
12:15 AM 35.6 °F - 35.6 °F 100% 30.26 in 10.0 mi Calm Calm - N/A   Clear
12:35 AM 35.6 °F - 35.6 °F 100% 30.24 in 10.0 mi Calm Calm - N/A   Clear
12:55 AM 35.6 °F - 33.8 °F 93% 30.25 in 10.0 mi Calm Calm - N/A   Clear
1:35 AM 33.8 °F - 33.8 °F 100% 30.23 in 8.0 mi Calm Calm - N/A   Clear
2:15 AM 35.6 °F - 33.8 °F 93% 30.21 in 8.0 mi Calm Calm - N/A   Clear
2:35 AM 33.8 °F - 33.8 °F 100% 30.18 in 10.0 mi Calm Calm - N/A   Clear
2:55 AM 35.6 °F - 33.8 °F 93% 30.18 in 10.0 mi Calm Calm - N/A   Clear
3:15 AM 35.6 °F - 35.6 °F 100% 30.18 in 10.0 mi Calm Calm - N/A   Clear
3:35 AM 37.4 °F - 35.6 °F 93% 30.18 in 10.0 mi Calm Calm - N/A   Clear
3:55 AM 35.6 °F - 35.6 °F 100% 30.18 in 10.0 mi Calm Calm - N/A   Clear
4:15 AM 35.6 °F - 35.6 °F 100% 30.17 in 9.0 mi Calm Calm - N/A   Clear
4:35 AM 35.6 °F - 35.6 °F 100% 30.17 in 10.0 mi Calm Calm - N/A   Clear
4:55 AM 35.6 °F - 33.8 °F 93% 30.17 in 10.0 mi Calm Calm - N/A   Clear
5:15 AM 35.6 °F - 35.6 °F 100% 30.17 in 7.0 mi Calm Calm - N/A   Clear
5:35 AM 35.6 °F - 35.6 °F 100% 30.17 in 10.0 mi Calm Calm - N/A   Clear
5:55 AM 35.6 °F - 35.6 °F 100% 30.16 in 10.0 mi Calm Calm - N/A   Clear
6:15 AM 35.6 °F - 35.6 °F 100% 30.17 in 10.0 mi Calm Calm - N/A   Clear
6:35 AM 35.6 °F - 35.6 °F 100% 30.17 in 10.0 mi Calm Calm - N/A   Clear
6:50 AM 35.6 °F - 35.6 °F 100% 30.17 in 10.0 mi Calm Calm - N/A   Clear
7:50 AM 44.6 °F 41.4 °F 44.6 °F 100% 30.17 in 10.0 mi South 5.8 mph - N/A   Clear
8:50 AM 57.2 °F - 48.2 °F 72% 30.18 in 10.0 mi South 9.2 mph - N/A   Clear
9:50 AM 64.4 °F - 50.0 °F 59% 30.18 in 10.0 mi South 11.5 mph - N/A   Clear
10:50 AM 68.0 °F - 53.6 °F 60% 30.16 in 10.0 mi South 11.5 mph 28.8 mph N/A   Scattered Clouds
11:50 AM 73.4 °F - 50.0 °F 44% 30.14 in 10.0 mi SSW 16.1 mph 28.8 mph N/A   Clear
12:50 PM 73.4 °F - 51.8 °F 47% 30.10 in 10.0 mi SSW 15.0 mph - N/A   Partly Cloudy
2:50 PM 77.0 °F - 53.6 °F 44% 30.03 in 10.0 mi WSW 17.3 mph 28.8 mph N/A   Scattered Clouds
3:50 PM 75.2 °F - 53.6 °F 47% 30.03 in 10.0 mi West 16.1 mph 23.0 mph N/A   Mostly Cloudy
4:50 PM 71.6 °F - 55.4 °F 57% 30.02 in 10.0 mi SW 13.8 mph 23.0 mph N/A Rain Light Rain
5:50 PM 69.8 °F - 55.4 °F 60% 30.04 in 10.0 mi SW 10.4 mph 17.3 mph N/A Rain Light Rain
7:50 PM 68.0 °F - 57.2 °F 68% 30.07 in 10.0 mi West 9.2 mph - N/A   Overcast
8:15 PM 64.4 °F - 60.8 °F 88% 30.09 in 5.0 mi WSW 6.9 mph - N/A Rain Light Rain
8:35 PM 64.4 °F - 62.6 °F 94% 30.10 in 10.0 mi West 4.6 mph - N/A   Overcast
8:55 PM 62.6 °F - 62.6 °F 100% 30.10 in 9.0 mi WNW 6.9 mph - N/A   Overcast
9:15 PM 62.6 °F - 62.6 °F 100% 30.10 in 8.0 mi West 5.8 mph - N/A Rain Light Rain
9:35 PM 62.6 °F - 62.6 °F 100% 30.10 in 10.0 mi West 6.9 mph - N/A   Overcast
9:55 PM 62.6 °F - 60.8 °F 94% 30.10 in 10.0 mi WNW 8.1 mph - N/A   Overcast
10:15 PM 60.8 °F - 57.2 °F 88% 30.11 in 10.0 mi NW 6.9 mph - N/A   Overcast
10:35 PM 60.8 °F - 57.2 °F 88% 30.11 in 10.0 mi WNW 8.1 mph - N/A   Overcast
10:55 PM 59.0 °F - 57.2 °F 94% 30.12 in 10.0 mi WNW 6.9 mph - N/A   Overcast
11:15 PM 59.0 °F - 57.2 °F 94% 30.12 in 10.0 mi NW 6.9 mph - N/A   Overcast
11:35 PM 59.0 °F - 57.2 °F 94% 30.12 in 10.0 mi WNW 6.9 mph - N/A   Overcast
11:55 PM 59.0 °F - 55.4 °F 88% 30.12 in 10.0 mi NW 4.6 mph - N/A   Overcast